GFSFLT2_sfc_rhum_000.txt.gz
RH
65 64 55 50 53 47 51 42 44 56 56 57 57 61 61 62 60 60 59 59 58 56 56 55 57 60 64
75 68 57 54 52 50 44 40 43 48 53 53 61 59 60 61 61 60 61 60 60 58 55 54 56 57 62
81 65 63 56 57 51 51 51 44 52 51 61 56 59 59 61 61 62 62 62 61 57 57 56 57 59 60
89 75 65 69 61 58 60 56 53 36 53 54 53 54 60 60 60 60 62 65 62 57 56 58 60 61 64
88 77 73 75 67 58 58 54 46 50 52 44 42 42 43 48 52 55 64 65 61 58 59 59 60 60 61
84 79 73 65 59 61 62 56 43 58 55 46 42 47 43 42 50 64 69 66 60 60 61 60 60 60 60
85 76 66 61 61 66 61 50 46 44 54 52 46 52 42 38 53 61 70 65 60 63 62 62 62 62 62
76 67 65 58 61 53 50 48 54 47 59 70 41 42 41 41 48 61 67 62 63 64 62 63 63 64 65
71 70 69 63 54 51 75 75 52 42 57 61 46 46 44 41 39 52 58 58 60 61 64 64 65 66 62
80 75 67 65 59 53 74 78 69 43 56 62 48 52 55 38 40 39 37 42 50 56 58 65 67 60 55
77 75 67 66 63 65 73 77 77 70 53 67 78 67 62 58 42 39 36 37 35 40 49 53 57 64 61
74 69 70 72 77 78 82 78 71 74 63 84 86 84 83 71 52 37 38 38 37 37 40 46 53 57 62
66 70 75 78 77 81 84 85 91 80 71 83 87 83 85 85 70 57 50 39 37 40 38 41 45 46 54
67 64 68 79 76 80 79 76 72 69 77 87 85 85 88 76 69 62 53 49 39 39 40 42 42 42 45
63 63 57 70 77 79 72 70 72 68 70 71 76 78 81 89 83 67 55 47 40 43 45 47 45 43 44
66 59 68 78 78 75 70 73 72 67 72 75 78 79 70 64 74 70 51 43 43 44 47 51 50 45 45
71 75 82 82 80 72 72 70 70 71 77 81 84 83 79 70 47 70 60 48 46 50 47 50 55 52 49

GFSFLT2_sfc_rhum_003.txt.gz
RH
74 76 60 56 61 55 70 60 69 65 63 64 61 59 62 61 62 62 62 61 60 60 59 57 55 54 54
81 82 76 63 58 59 51 44 54 64 61 58 56 61 61 60 63 63 62 61 62 61 59 57 56 55 57
88 90 83 70 65 58 60 60 48 65 58 56 60 61 59 62 61 62 62 63 62 61 59 58 56 58 61
94 90 86 84 74 75 75 67 66 47 45 52 53 54 56 58 61 62 63 63 64 62 60 57 57 58 63
97 95 90 91 87 81 77 73 70 63 63 59 60 62 58 52 58 57 59 62 66 64 60 58 59 58 58
97 97 94 89 87 81 76 75 74 67 70 63 57 61 60 59 50 52 60 67 68 64 60 61 61 60 60
96 93 93 84 80 78 75 68 67 73 68 65 61 67 62 44 49 53 58 65 69 64 62 62 61 62 62
92 90 84 76 77 78 68 64 64 59 68 83 62 62 59 59 50 52 57 66 64 63 64 62 62 64 64
88 83 77 72 65 61 78 80 68 57 71 69 62 62 62 56 54 47 59 60 58 56 60 61 64 65 70
90 83 78 74 64 73 79 83 87 57 70 71 61 66 74 53 57 60 58 46 45 49 53 55 59 74 75
93 90 85 82 76 81 84 84 91 84 72 85 94 89 82 80 62 59 58 57 54 50 46 50 55 58 70
94 90 88 88 85 87 90 90 90 84 79 91 96 96 96 88 78 61 60 57 55 53 55 49 50 50 54
94 91 87 91 93 95 93 94 96 85 83 92 95 95 92 86 92 82 71 60 54 56 59 57 56 60 67
85 87 89 92 92 94 92 92 89 90 87 93 94 94 91 87 90 88 78 74 61 58 58 55 55 54 55
85 87 86 90 92 93 89 87 85 86 91 94 92 90 92 93 96 90 84 74 62 56 58 56 54 54 55
78 78 87 92 93 90 86 83 86 87 92 94 94 95 93 86 82 93 82 67 57 56 57 60 60 58 62
82 88 92 94 89 86 84 82 84 90 94 95 96 97 98 94 81 70 83 68 62 57 58 62 64 62 62

GFSFLT2_sfc_rhum_006.txt.gz
RH
73 75 89 88 90 77 76 73 75 76 73 73 72 69 67 66 64 60 60 60 59 59 60 59 58 56 54
79 85 89 90 88 84 81 68 76 74 72 71 70 68 65 64 60 62 62 61 60 61 61 60 59 57 56
89 86 95 88 91 90 86 74 68 73 70 68 66 64 66 60 61 62 61 62 62 63 62 61 59 57 55
91 93 94 93 92 92 89 84 77 65 65 63 64 64 64 60 59 59 61 63 64 64 63 61 60 57 57
94 99 97 97 95 94 93 87 84 71 64 61 76 73 72 60 63 62 63 61 63 64 63 62 59 58 60
96 98 96 93 96 96 95 96 93 75 77 76 69 78 71 68 56 54 55 55 60 65 65 62 59 60 60
98 95 92 91 93 97 95 91 88 81 71 69 72 76 72 51 55 55 55 57 61 65 66 62 61 61 61
95 93 92 92 93 91 92 92 89 84 77 75 77 77 73 71 58 53 54 55 59 66 64 63 63 63 63
98 96 98 96 93 93 95 92 84 73 76 72 72 68 67 66 64 52 51 56 62 63 60 58 59 62 68
100 98 98 97 91 90 89 91 96 90 82 76 72 69 71 66 66 65 65 55 50 50 50 52 54 71 85
99 98 98 98 98 97 95 91 93 88 81 90 97 90 82 83 71 68 69 68 68 65 54 50 50 58 83
98 96 95 97 98 98 97 95 91 88 76 91 97 96 98 92 87 79 76 74 75 68 68 57 51 51 53
97 95 95 96 97 97 97 96 95 90 87 93 95 96 97 98 96 97 88 78 73 74 75 70 67 65 73
97 98 98 96 96 94 94 96 94 95 94 94 94 96 99 98 98 95 94 94 84 79 75 67 68 69 67
97 96 95 94 94 94 94 96 93 97 100 99 98 97 97 96 95 91 92 93 86 82 73 66 64 66 66
97 97 96 95 95 97 96 92 87 92 96 100 99 97 96 91 86 95 98 93 86 76 69 69 64 63 65
98 98 98 97 97 96 93 84 91 96 98 98 99 99 100 99 90 68 95 86 83 78 70 66 67 64 64

GFSFLT2_sfc_rhum_009.txt.gz
RH
72 69 78 82 80 86 82 82 84 87 85 86 85 85 83 76 75 69 68 66 63 62 62 62 61 59 57
80 79 82 88 84 92 89 83 87 88 86 86 87 86 80 76 73 70 67 64 64 63 62 63 62 60 58
91 84 87 96 96 92 93 91 88 88 88 88 86 86 81 77 71 70 66 66 66 65 64 63 62 61 60
92 91 88 96 93 94 98 96 95 87 91 88 86 82 81 75 72 66 67 67 66 66 65 63 63 61 60
88 88 93 100 98 95 96 95 96 93 94 94 89 88 81 72 76 75 66 65 66 66 66 65 62 62 60
88 90 87 98 97 96 96 99 99 94 93 96 93 93 84 88 79 66 64 66 66 65 66 64 63 62 59
96 91 92 90 93 97 96 95 95 98 92 96 94 93 89 79 71 60 59 61 60 61 64 66 64 62 60
88 88 90 91 96 93 90 97 98 98 96 96 94 93 89 74 64 59 59 59 59 61 63 66 64 62 61
92 96 96 96 97 99 100 99 97 96 96 92 93 93 88 82 67 59 59 57 58 59 64 64 64 63 67
90 91 96 94 97 97 95 100 99 97 98 95 93 92 86 85 71 66 66 56 57 64 63 58 56 72 82
95 99 99 99 99 99 98 97 98 100 96 97 97 93 80 78 68 66 67 67 67 67 56 54 52 57 80
99 99 99 99 100 99 99 99 98 97 99 98 98 96 94 84 72 79 75 73 74 69 70 63 57 54 53
98 100 100 100 99 98 98 98 98 98 97 97 94 95 92 90 88 93 82 77 79 82 85 80 74 70 79
99 99 99 99 98 98 97 97 96 97 97 91 93 93 97 99 94 96 93 86 89 89 84 78 74 71 68
99 98 98 98 97 97 97 98 97 96 98 98 96 94 97 95 100 97 96 98 95 92 89 84 75 69 68
99 98 97 97 97 98 97 98 97 93 99 98 99 95 93 90 89 98 97 96 93 91 87 82 72 65 67
99 98 97 97 97 97 97 96 93 95 99 99 98 98 99 92 88 76 93 93 91 90 82 80 74 68 66

GFSFLT2_sfc_rhum_012.txt.gz
RH
75 75 84 86 84 80 76 72 71 78 78 79 82 81 83 85 87 85 82 77 75 74 70 66 60 62 62
79 82 84 83 83 84 85 81 81 83 88 83 83 86 87 90 90 88 84 84 78 79 68 62 61 63 62
86 81 83 84 90 96 90 91 93 89 86 89 86 88 91 93 93 90 90 86 79 73 65 63 64 63 62
87 84 82 81 97 96 96 98 97 96 91 90 90 92 94 95 93 92 91 87 80 72 67 66 65 64 62
88 86 88 87 94 91 96 92 96 94 98 95 97 98 98 94 94 94 91 88 84 76 70 67 66 65 64
92 91 87 90 88 89 94 96 98 99 98 98 98 98 98 97 92 91 89 88 84 74 67 66 67 66 64
89 84 85 80 85 91 89 97 94 96 97 98 99 98 98 97 92 91 90 85 79 72 69 68 67 65 64
82 80 81 82 86 91 94 94 99 99 96 99 99 98 98 98 92 91 89 82 79 75 68 67 66 66 64
81 85 87 87 88 94 97 99 99 98 99 96 99 98 98 99 98 93 90 87 76 66 65 65 66 65 66
85 86 85 86 87 94 97 99 100 99 99 96 98 96 97 97 99 100 97 79 70 63 64 64 65 79 84
94 94 94 95 98 99 99 99 99 100 97 97 98 97 97 96 96 97 92 67 70 64 62 66 65 69 80
97 97 98 99 100 100 100 100 99 99 99 99 98 98 98 96 94 86 70 67 64 63 64 60 60 58 59
97 98 99 99 100 99 99 98 98 98 98 98 97 98 98 96 88 79 69 68 74 72 76 76 74 70 78
97 97 99 99 99 99 98 98 96 97 98 98 97 96 94 88 85 88 89 70 86 88 83 79 75 72 70
98 98 98 98 98 98 98 98 97 97 96 96 94 93 92 95 98 96 98 98 90 92 92 86 81 76 74
97 98 98 98 98 98 98 97 96 96 96 97 99 94 88 87 85 99 98 95 94 92 90 91 84 78 73
97 98 98 98 98 98 98 97 95 95 99 98 98 96 92 82 86 81 91 93 92 94 90 88 81 74 71

GFSFLT2_sfc_rhum_015.txt.gz
RH
71 74 79 85 81 87 90 86 77 80 84 83 86 87 86 84 82 80 80 79 78 79 84 82 79 76 73
76 73 76 77 82 85 84 85 89 82 82 82 82 84 86 88 85 83 83 82 81 82 84 84 78 80 79
82 79 78 79 83 82 86 90 88 91 90 86 88 89 88 94 91 88 87 87 88 88 90 87 86 82 68
82 81 79 76 81 89 90 88 95 92 92 91 88 88 93 93 94 93 92 94 94 95 96 93 87 79 75
74 77 78 81 83 84 87 82 81 93 94 91 94 94 94 93 93 97 97 95 95 95 93 90 87 82 72
77 76 76 78 83 87 87 88 91 85 95 96 93 97 94 95 90 92 96 95 95 92 91 88 86 81 75
78 77 82 75 81 87 88 88 87 86 99 98 99 98 93 98 95 95 96 94 92 92 90 87 84 79 75
69 76 79 79 83 84 88 89 88 89 95 98 96 98 100 99 97 96 94 92 91 91 88 85 83 83 81
77 80 79 82 84 89 96 93 92 93 99 98 100 99 99 100 99 94 91 90 90 88 88 91 90 81 76
82 80 78 80 84 90 94 98 98 98 100 99 99 97 98 97 99 98 96 90 93 96 96 93 83 80 81
86 84 79 84 94 92 98 99 99 99 95 99 99 99 97 97 98 99 99 98 98 97 93 85 75 79 84
94 94 89 97 98 98 98 99 99 99 97 100 98 97 98 97 96 97 98 98 98 98 86 74 72 74 73
95 92 94 98 99 99 99 99 98 98 98 99 99 98 98 97 95 96 96 94 94 84 76 74 72 70 78
96 96 96 96 98 99 99 99 98 97 97 98 98 98 97 96 95 96 95 92 90 82 70 72 70 66 67
97 95 92 96 97 99 99 98 98 97 97 96 96 95 94 94 94 90 87 86 79 81 78 80 77 75 72
96 94 96 97 98 98 98 98 97 96 97 97 96 92 87 81 78 94 91 87 89 87 85 82 80 82 78
97 97 97 97 98 98 98 97 96 96 96 97 95 88 84 83 81 75 89 91 90 94 91 89 83 78 72

GFSFLT2_sfc_rhum_018.txt.gz
RH
64 60 53 63 68 74 75 76 74 80 85 86 85 86 85 87 88 90 93 93 89 83 80 78 78 82 85
67 65 66 71 71 72 68 67 76 77 80 80 85 88 88 87 88 89 89 91 93 88 81 80 78 87 85
79 69 72 73 79 73 73 72 74 76 79 83 81 81 85 90 88 88 89 91 92 94 95 86 80 87 90
79 76 72 71 79 81 80 77 77 68 74 75 81 86 88 86 90 91 92 94 95 93 94 93 86 88 92
80 80 73 71 74 70 79 77 74 75 81 77 79 86 87 88 91 90 93 93 92 94 94 94 94 95 94
76 80 72 68 73 75 81 86 89 74 84 85 80 87 88 91 87 89 91 93 94 95 94 94 97 95 93
76 76 83 80 74 79 93 93 91 79 82 90 84 88 83 92 91 91 91 91 96 96 94 96 95 94 94
74 78 82 82 91 88 84 89 92 86 84 97 86 90 89 91 90 92 92 91 90 95 96 95 94 92 89
71 72 73 76 72 81 96 98 96 96 91 93 91 91 100 99 98 94 92 92 96 93 91 92 90 90 89
85 78 74 71 72 80 97 99 98 97 94 99 98 100 99 96 99 99 98 95 93 89 88 88 89 96 98
81 81 79 81 86 92 97 99 98 97 89 98 100 99 98 96 96 98 99 98 97 93 90 92 95 96 98
88 88 85 89 88 88 94 98 98 98 96 98 99 99 98 97 97 98 98 99 98 98 98 96 96 96 86
92 90 87 88 89 89 95 97 99 98 97 98 99 99 99 98 96 97 98 97 99 98 99 98 98 94 94
94 92 87 92 90 92 98 98 98 98 98 98 98 98 98 97 97 97 96 96 97 98 96 95 95 92 81
92 91 87 95 92 96 98 98 98 97 97 96 97 97 97 98 96 96 95 95 95 95 95 93 89 68 65
92 91 94 96 96 97 98 98 97 96 96 96 96 96 94 93 94 96 94 91 94 87 77 76 74 72 67
94 94 96 96 97 97 98 97 96 96 96 96 96 94 89 92 87 74 81 82 80 79 75 71 68 72 69

GFSFLT2_sfc_rhum_021.txt.gz
RH
48 44 57 55 50 51 54 50 52 66 63 74 76 77 78 80 83 84 88 89 89 90 92 88 88 85 84
55 72 55 54 57 62 56 52 57 61 64 72 68 73 77 83 84 83 84 88 90 90 90 90 94 90 88
69 55 55 52 59 57 57 61 54 65 63 66 66 69 74 74 78 82 85 90 92 92 91 90 90 92 93
73 66 57 56 62 67 65 63 64 53 58 61 64 69 73 74 77 82 89 91 92 91 90 92 92 92 93
70 68 70 68 68 62 70 68 67 66 67 66 65 68 76 70 71 83 90 92 91 90 91 93 94 92 92
83 77 68 61 64 72 76 82 89 65 77 78 68 73 67 69 72 76 80 85 87 92 92 91 92 91 92
79 82 85 70 73 94 91 90 96 91 83 79 76 84 74 70 74 75 81 85 87 88 88 91 93 95 94
65 63 64 71 78 86 95 91 85 82 80 98 83 89 83 81 78 81 83 86 87 89 88 90 92 93 93
65 69 69 70 69 78 95 94 89 80 76 96 94 92 88 92 88 86 88 87 89 91 91 91 94 97 97
68 68 68 69 71 79 97 98 95 93 87 99 92 92 98 97 96 94 93 89 87 88 92 96 93 94 96
72 72 72 73 75 81 96 99 98 94 82 94 98 97 99 98 92 94 98 98 99 97 93 92 89 89 96
81 81 81 82 84 86 85 98 97 98 98 98 96 93 96 98 96 96 98 100 96 98 97 93 92 90 90
86 85 84 86 89 88 88 95 100 100 100 96 97 96 97 98 95 95 98 98 99 98 98 97 97 97 98
89 88 86 86 87 86 97 95 97 96 97 96 96 97 96 96 95 94 96 97 99 98 97 97 97 97 97
88 88 87 87 88 95 96 96 96 94 94 94 96 96 95 98 95 95 95 96 97 97 95 95 96 97 95
90 91 93 94 95 96 97 96 95 94 94 94 94 94 94 94 94 94 94 92 94 96 94 90 92 94 81
93 94 94 95 96 96 95 95 94 91 91 92 92 89 95 93 92 94 90 91 92 93 93 87 88 89 78

GFSFLT2_sfc_rhum_024.txt.gz
RH
41 39 38 40 38 35 37 35 37 50 54 57 60 63 70 72 71 72 79 80 80 79 78 82 82 82 86
51 45 46 41 41 41 34 31 37 44 52 55 58 60 61 67 72 75 75 77 81 83 82 82 85 86 87
58 50 49 44 45 42 43 43 35 49 50 52 54 57 61 63 66 71 76 78 82 85 87 89 89 88 86
62 59 55 51 50 54 54 47 48 40 47 52 58 60 62 62 66 72 77 75 81 85 88 90 93 92 89
70 70 59 53 56 54 59 55 53 52 57 55 55 58 58 62 64 65 70 71 78 77 86 90 91 92 93
77 71 55 55 60 59 64 69 78 53 59 66 66 68 61 57 62 70 71 72 74 77 80 86 91 92 90
62 61 68 58 61 71 75 87 94 77 81 82 59 69 63 64 72 72 74 76 78 78 82 87 89 89 89
53 57 65 69 78 85 88 84 76 71 70 96 75 78 69 66 70 73 76 82 82 82 84 87 85 87 90
62 62 62 64 66 70 91 92 87 76 72 87 82 88 96 92 75 67 81 82 84 84 85 87 89 92 89
58 57 60 60 66 70 95 96 93 90 78 94 89 86 89 77 87 93 93 87 86 85 85 85 88 93 99
62 64 64 66 70 74 85 97 95 93 79 86 97 91 95 89 78 83 88 85 85 88 87 88 92 93 98
75 75 77 79 80 81 82 85 90 96 91 100 98 97 93 89 86 87 94 96 98 99 98 96 92 90 87
84 84 82 83 86 88 90 89 94 98 100 100 97 94 96 94 90 91 99 99 100 98 98 98 97 94 97
90 87 83 87 91 91 96 94 97 96 100 99 97 97 96 95 94 97 96 98 100 98 97 98 98 97 98
89 89 89 91 92 93 96 96 96 94 93 93 96 97 97 99 96 99 96 98 99 99 97 97 98 98 97
90 92 94 94 95 96 96 96 95 93 94 93 91 94 96 94 96 95 94 96 98 98 95 91 97 98 97
93 94 94 95 96 95 93 86 83 83 85 88 91 96 94 93 92 96 92 95 95 94 93 80 92 97 97

GFSFLT2_sfc_rhum_027.txt.gz
RH
42 41 46 46 42 42 43 41 41 47 48 49 50 51 52 54 57 59 61 62 64 66 71 74 75 73 77
51 54 50 45 45 47 42 37 41 46 49 49 51 51 51 52 55 58 59 62 64 67 69 72 73 76 76
64 54 51 50 54 53 47 42 36 49 49 50 50 53 56 55 56 60 65 64 64 67 74 75 76 76 77
66 64 62 58 61 56 51 51 54 43 46 48 52 53 54 56 58 64 71 71 66 60 74 74 84 86 81
75 77 84 69 62 54 61 58 56 53 55 54 55 63 64 62 61 68 66 65 64 65 62 64 74 77 86
94 93 67 55 58 62 66 72 79 58 70 73 63 64 60 60 61 60 61 62 64 67 67 69 76 79 82
63 65 64 57 60 78 83 87 83 70 74 81 70 75 68 59 63 59 60 65 66 67 71 78 80 80 85
52 53 58 66 75 73 84 88 80 73 69 92 75 86 68 69 69 71 72 68 71 73 73 79 84 84 86
59 61 60 61 61 65 91 93 88 79 74 82 81 87 88 86 69 65 70 91 91 93 81 82 86 88 90
58 57 58 60 63 67 85 96 93 92 77 88 90 89 91 81 88 85 78 69 75 87 78 83 84 90 93
62 65 66 68 71 73 78 93 96 94 80 83 96 93 94 93 81 82 83 82 93 88 83 80 80 83 94
77 77 78 80 82 83 83 87 90 95 92 96 97 96 96 95 88 84 85 90 98 98 98 94 89 84 89
89 87 86 89 91 92 91 88 94 93 96 98 99 98 97 95 93 90 92 98 99 99 98 98 98 97 98
92 89 88 92 94 94 96 96 97 95 91 98 99 98 96 96 97 95 96 99 99 100 98 97 97 97 95
92 92 91 93 92 92 97 96 95 93 90 90 96 97 97 98 98 99 99 99 99 100 97 98 99 98 97
92 93 94 94 95 88 89 89 90 88 90 92 95 95 98 97 97 98 99 99 99 100 98 97 98 99 98
92 91 91 92 89 88 87 87 88 87 91 93 96 96 96 96 96 97 98 98 97 97 98 97 98 99 97

GFSFLT2_sfc_rhum_030.txt.gz
RH
47 45 52 52 47 45 46 45 46 53 54 52 49 49 50 51 52 51 50 52 55 57 57 62 63 68 71
61 61 58 54 52 52 47 44 50 52 51 51 50 51 53 54 50 52 53 58 56 57 57 58 59 58 66
71 64 64 56 57 57 74 59 43 49 49 53 54 53 54 54 54 56 57 56 58 61 65 66 65 68 66
82 85 65 66 86 81 62 55 54 44 49 53 56 57 58 59 60 62 61 59 60 61 67 67 72 67 71
77 73 90 64 68 62 64 60 57 58 61 61 62 61 62 62 60 62 61 63 62 62 61 68 80 71 69
95 79 60 60 69 66 66 73 85 66 72 77 66 67 65 63 65 62 72 63 84 72 65 60 67 66 70
68 63 67 71 64 79 90 95 93 77 75 82 70 74 66 61 61 63 65 67 72 66 71 70 71 71 72
55 56 62 63 70 74 80 82 78 73 70 91 77 86 65 63 66 66 65 66 63 65 68 62 66 76 76
67 66 60 61 61 64 92 95 88 79 75 83 82 87 85 82 69 68 70 96 91 88 83 78 75 83 77
59 59 61 64 67 72 90 96 94 92 75 89 92 89 93 80 82 86 75 72 68 65 68 81 90 92 91
62 68 70 71 73 77 92 97 96 94 80 87 96 94 96 94 88 83 98 84 83 78 75 81 79 81 98
81 83 84 89 88 88 88 94 95 97 94 98 97 97 97 95 89 86 87 86 91 91 97 97 96 84 82
90 89 91 93 94 93 90 87 91 96 96 94 97 96 98 96 95 92 93 95 97 99 99 98 98 96 96
94 92 90 91 92 94 95 94 94 91 88 93 98 98 97 96 96 95 95 98 99 100 99 99 98 98 98
92 91 88 88 89 88 96 95 96 96 94 88 90 95 97 98 97 97 98 99 99 99 98 98 99 98 98
91 92 94 94 94 92 94 96 96 94 96 94 94 93 98 96 97 98 98 99 99 99 99 97 98 98 97
94 94 94 93 91 95 94 94 93 96 95 95 96 96 95 96 96 99 98 98 98 98 98 97 98 99 97

GFSFLT2_sfc_rhum_033.txt.gz
RH
48 47 52 57 50 52 54 50 50 57 60 66 60 53 52 51 53 53 52 58 61 59 55 62 64 63 60
59 67 64 55 56 64 51 51 59 64 62 56 54 52 54 54 54 55 54 53 52 52 54 52 57 66 64
80 61 60 76 66 61 76 59 47 51 54 54 56 55 57 58 57 57 56 58 65 65 65 66 64 61 64
72 90 67 65 88 58 56 54 59 46 52 54 58 59 60 59 59 59 60 61 61 61 61 60 59 59 60
80 76 92 65 63 61 65 66 63 59 60 62 66 69 64 63 60 62 63 64 64 63 63 65 65 61 65
96 79 68 66 66 66 71 90 90 66 72 71 65 66 64 63 65 64 65 69 73 59 79 63 68 71 68
73 74 76 65 71 94 92 91 90 76 74 80 68 69 64 60 66 64 63 61 61 67 67 71 73 67 66
62 61 70 75 67 70 90 93 85 73 67 92 77 78 67 65 68 69 68 67 69 76 73 71 70 64 62
72 65 61 62 65 80 93 93 88 76 69 83 86 87 85 81 69 72 70 70 75 87 87 86 88 80 75
58 58 62 65 72 77 95 96 94 92 73 91 91 92 94 79 80 82 84 72 69 67 68 67 69 72 81
65 70 74 78 76 87 95 97 96 94 81 91 96 96 95 95 88 88 88 84 83 83 73 71 70 71 87
82 82 83 88 88 88 88 93 94 97 94 98 97 98 96 92 89 84 87 87 91 94 94 88 82 77 78
89 88 89 91 94 92 89 87 87 91 94 96 98 96 97 95 94 91 95 91 97 98 96 97 97 96 93
92 89 89 93 94 94 95 92 95 88 82 87 98 98 96 95 96 94 94 98 98 99 99 99 98 98 91
92 92 90 91 91 89 95 94 95 95 92 89 89 91 97 98 96 95 97 98 99 99 100 99 100 100 98
90 90 94 92 93 88 91 94 96 94 95 91 95 91 95 94 97 98 98 98 99 99 100 97 98 99 98
93 94 94 93 90 94 92 92 92 96 94 92 96 97 96 96 88 99 98 98 98 98 98 98 98 99 97

GFSFLT2_sfc_rhum_036.txt.gz
RH
53 51 58 61 55 53 54 54 57 63 65 62 57 55 56 56 58 58 58 55 55 56 59 60 64 66 67
75 65 57 52 53 66 61 50 62 64 57 56 54 54 54 55 55 56 58 57 57 58 56 55 54 56 56
67 59 59 72 64 70 76 53 43 51 56 57 59 59 59 59 58 58 60 63 64 64 64 62 62 64 66
78 88 76 63 89 62 59 57 57 46 54 58 63 60 61 61 61 60 63 66 64 62 60 58 56 62 64
74 75 92 63 66 66 68 65 63 68 82 63 60 64 63 63 61 62 62 63 62 62 64 66 67 66 62
95 76 72 69 68 69 79 93 86 60 67 76 67 66 64 63 66 66 65 65 65 70 73 78 74 76 69
76 73 73 70 92 94 87 90 90 73 75 84 69 72 66 57 67 66 66 65 65 67 67 70 71 70 70
59 65 78 71 66 79 95 92 82 68 64 93 76 78 69 67 71 71 70 70 69 68 68 73 71 70 69
75 66 64 66 69 86 92 93 87 74 67 80 81 85 83 79 69 72 70 70 69 71 78 82 84 82 78
60 61 65 67 72 77 96 96 93 90 72 90 90 91 93 77 82 79 76 73 70 69 70 68 66 79 95
69 70 70 72 72 79 94 97 95 94 78 90 95 92 95 93 82 82 80 77 78 82 82 77 68 68 95
80 80 82 86 87 88 88 94 95 97 94 97 97 97 96 92 89 82 84 84 91 95 95 92 88 73 68
87 87 87 88 90 90 88 86 86 88 95 96 98 96 97 96 94 90 93 90 93 97 97 96 96 93 85
92 88 86 87 88 87 92 91 94 87 82 85 95 98 96 95 96 94 90 97 96 98 99 98 96 91 89
90 90 88 88 89 86 91 92 94 93 91 85 86 89 95 97 96 95 97 96 99 99 100 99 98 97 91
90 90 93 93 93 89 89 93 95 92 93 92 93 91 89 90 96 98 98 98 99 99 100 97 98 99 96
91 93 94 92 90 92 91 92 91 93 91 96 96 96 94 94 87 93 98 98 98 98 98 97 97 98 98

GFSFLT2_sfc_rhum_039.txt.gz
RH
59 58 59 54 50 51 52 51 55 64 67 64 56 56 56 55 57 59 61 63 64 64 68 66 65 64 64
78 62 58 55 57 60 63 60 81 66 61 56 56 56 56 58 61 69 67 61 59 60 60 61 62 64 64
72 65 65 68 70 76 75 54 45 52 56 58 60 60 60 62 62 63 70 70 68 67 68 68 67 66 67
77 79 75 84 76 64 59 58 59 49 57 62 64 64 64 62 61 60 60 62 63 64 65 64 67 69 72
91 86 76 62 66 64 67 66 76 72 65 62 61 61 61 65 64 65 65 66 65 64 64 65 67 68 66
92 78 69 68 66 71 92 84 86 62 67 82 70 69 65 64 67 68 67 66 65 69 76 72 71 72 70
74 72 71 70 95 92 88 90 87 72 75 86 68 70 62 55 67 68 69 70 69 71 73 74 73 71 73
60 69 88 68 66 80 96 93 83 67 63 93 72 74 65 64 70 70 69 69 71 73 73 69 70 73 70
79 65 65 68 71 90 91 94 86 73 66 78 81 84 82 77 68 74 70 69 69 73 68 68 68 73 73
61 64 67 68 70 73 96 96 93 90 70 91 90 90 92 76 81 77 75 73 70 70 71 70 67 68 85
70 71 70 69 70 76 84 95 95 94 78 90 95 91 94 93 82 80 79 77 77 78 77 81 79 82 97
82 82 82 85 84 85 86 88 88 95 94 96 97 96 96 92 88 83 83 85 95 94 94 91 95 90 82
88 87 87 88 89 88 86 85 86 86 88 91 98 96 97 96 94 91 95 89 88 96 96 96 95 96 96
92 88 86 88 89 88 92 90 93 86 80 83 95 97 96 94 97 94 90 97 97 98 99 98 97 96 92
91 91 89 88 89 86 91 92 94 91 89 85 85 87 91 96 96 93 97 98 98 99 99 99 97 94 92
90 90 92 93 92 88 90 93 95 91 94 91 91 91 84 90 94 97 97 98 98 99 99 98 99 98 93
92 93 94 92 90 92 91 92 91 91 91 94 94 96 94 93 88 77 98 98 98 98 98 98 99 100 98

GFSFLT2_sfc_rhum_042.txt.gz
RH
61 61 64 59 54 55 56 56 58 67 63 62 60 58 56 58 62 66 67 66 65 67 67 67 64 65 65
76 63 62 60 62 67 72 64 65 64 63 59 58 59 61 62 65 71 73 72 68 68 66 68 68 67 64
72 66 67 70 85 66 58 52 45 54 59 61 62 63 64 64 64 67 69 69 67 66 64 67 69 68 67
76 90 88 65 65 62 61 59 60 52 62 65 66 63 63 63 64 62 62 63 63 62 62 64 63 63 67
91 75 78 67 68 64 68 71 80 64 64 61 62 63 64 69 67 67 67 68 67 66 64 64 64 69 69
85 75 70 67 66 79 91 84 87 62 71 72 66 67 64 63 66 68 67 67 67 68 69 72 71 70 74
71 70 72 74 96 92 87 91 91 74 75 81 65 69 61 55 67 68 69 69 69 72 72 72 71 74 68
64 70 88 70 68 76 95 92 83 67 63 88 69 74 65 63 70 71 71 70 69 72 74 72 72 72 73
78 67 66 69 70 81 90 93 87 74 67 76 81 82 80 76 68 72 67 66 68 70 71 68 70 75 80
61 64 67 69 72 73 89 96 92 90 69 91 90 91 92 74 76 71 73 73 73 76 79 81 73 69 80
69 70 70 72 72 77 84 96 95 94 78 90 95 91 95 92 78 78 76 79 85 86 85 87 91 89 97
81 81 83 86 85 86 86 89 89 94 90 95 96 96 95 92 91 83 83 86 93 93 89 90 95 97 93
89 87 87 88 89 88 87 86 86 86 87 88 97 95 97 96 95 91 92 88 87 94 96 96 96 96 96
92 88 87 88 89 88 93 91 94 87 81 84 94 98 96 92 97 94 89 97 97 98 98 98 98 96 95
91 91 89 89 88 87 92 93 94 92 89 83 83 86 89 94 96 91 97 95 98 98 98 99 98 95 93
90 90 92 92 93 89 90 94 94 91 92 90 90 90 84 87 87 97 92 98 98 98 99 99 99 98 92
92 92 95 93 91 92 92 93 92 90 92 90 95 96 94 93 85 75 98 98 97 97 98 98 99 99 96

GFSFLT2_sfc_rhum_045.txt.gz
RH
50 47 47 45 43 45 50 49 48 61 62 62 62 62 61 61 63 64 64 67 68 69 69 68 67 67 69
61 54 48 48 51 59 45 38 40 50 59 61 61 62 62 63 66 66 65 66 65 67 68 69 70 68 67
61 55 57 63 54 47 44 44 39 54 58 61 64 66 66 65 64 63 63 64 66 67 66 66 67 67 69
71 84 62 53 58 54 52 50 51 47 57 60 63 63 64 65 65 65 65 66 66 66 65 65 64 64 64
77 66 71 55 55 54 59 63 61 54 56 52 50 53 56 62 61 65 66 68 68 70 72 72 68 68 67
83 65 57 54 58 70 83 75 78 51 56 64 56 56 53 52 62 66 67 67 68 68 70 73 81 77 75
61 59 64 63 92 90 81 83 84 66 66 70 54 55 51 46 64 67 69 70 70 70 71 73 77 74 73
57 63 79 69 63 71 88 86 72 58 55 83 59 61 55 54 66 69 70 70 70 71 72 72 70 70 69
74 69 65 68 68 78 86 88 82 66 58 66 66 71 70 67 58 63 63 65 73 82 86 86 83 76 73
52 53 58 59 70 63 85 95 90 87 57 84 84 81 86 60 65 64 59 67 73 79 90 93 93 92 94
57 58 59 60 60 65 78 95 95 93 71 85 92 88 90 88 73 74 72 70 74 74 77 83 95 97 96
69 74 76 80 81 81 80 86 86 93 87 92 96 95 95 90 85 79 80 80 82 80 83 82 84 96 98
82 85 84 85 90 89 88 87 88 87 88 87 96 95 96 95 94 88 87 87 88 94 97 97 97 97 94
87 82 83 86 88 87 92 90 93 86 82 84 95 98 96 90 95 92 87 97 97 99 98 97 98 94 85
87 87 85 86 87 86 90 92 93 91 88 83 85 89 89 94 94 90 98 97 98 99 99 98 99 96 87
86 88 91 91 91 89 89 92 93 89 90 88 88 89 84 82 76 99 93 96 98 99 99 98 98 97 88
91 91 93 92 90 91 90 90 88 87 88 88 94 96 94 90 77 71 98 97 97 97 98 98 98 99 91

GFSFLT2_sfc_rhum_048.txt.gz
RH
38 36 40 38 35 37 42 41 37 48 52 56 58 60 62 63 63 63 64 66 67 70 72 71 67 66 66
49 47 41 40 44 44 33 30 35 44 53 58 60 61 62 64 64 65 64 64 66 68 71 68 70 69 70
57 48 46 54 46 41 40 38 33 48 52 56 59 61 62 62 62 62 62 63 64 64 64 65 66 68 70
59 70 68 48 50 46 46 45 46 41 48 52 56 57 58 59 61 63 64 65 66 66 65 65 67 68 70
85 65 67 49 45 48 53 54 56 50 50 47 44 49 52 56 56 59 59 62 64 67 69 71 73 74 70
84 64 46 46 50 59 76 75 72 49 52 58 51 52 49 48 56 59 62 65 67 68 69 70 71 71 71
54 50 54 54 81 92 77 80 80 62 62 65 50 51 48 41 58 62 64 66 69 69 69 72 72 72 72
48 51 67 72 66 66 82 80 68 55 53 78 56 57 51 51 64 66 67 67 66 66 68 75 82 82 81
63 69 64 62 62 73 86 85 79 64 57 62 61 68 70 67 56 56 59 63 68 68 69 72 78 86 88
51 46 50 51 61 59 82 96 89 86 57 79 82 78 85 62 65 63 58 64 66 68 67 70 74 85 96
47 49 51 54 55 61 76 93 95 92 69 83 92 86 92 89 72 75 72 67 65 69 70 71 72 80 97
62 68 72 77 79 78 78 84 84 93 86 91 96 95 95 90 84 79 79 80 80 79 80 91 94 90 87
79 82 81 83 88 88 87 86 87 87 88 88 94 95 96 95 92 87 87 86 88 93 91 96 97 97 97
84 79 80 85 87 86 92 89 92 87 83 85 90 95 96 90 92 90 87 96 96 99 98 97 97 97 98
85 84 83 84 86 85 90 92 91 88 86 84 87 90 94 94 96 90 92 96 98 100 98 97 98 99 96
85 86 89 88 91 89 89 92 92 85 85 85 88 88 85 80 76 94 94 92 94 99 98 98 97 98 90
89 90 92 92 89 91 90 87 85 86 84 82 91 95 94 90 76 73 99 94 97 96 98 97 98 98 92

GFSFLT2_sfc_rhum_051.txt.gz
RH
43 42 43 45 40 39 46 43 43 48 51 53 54 56 58 59 61 62 67 66 67 67 72 69 73 71 68
51 52 50 44 44 52 45 34 39 44 50 53 56 57 58 59 60 59 60 61 62 63 68 70 68 68 68
57 49 51 53 65 49 46 45 36 47 51 54 57 58 59 58 58 58 58 59 61 61 62 63 66 66 69
64 72 72 64 57 54 52 51 52 43 53 54 56 56 56 56 59 59 60 60 62 62 61 63 65 67 68
82 90 75 60 54 53 57 60 62 65 58 56 53 55 57 57 56 57 57 59 60 61 64 65 65 66 70
93 77 63 54 56 64 76 87 88 59 62 66 60 62 57 55 56 58 60 62 63 63 65 68 70 71 70
61 56 57 56 77 86 86 84 82 70 68 75 62 63 57 48 59 60 63 66 67 66 67 71 72 72 71
50 53 62 68 90 80 79 82 74 65 62 84 66 67 60 60 65 66 66 64 62 63 66 68 68 70 74
58 64 64 58 57 64 88 89 85 70 65 73 75 79 74 72 63 58 60 63 68 67 68 68 73 76 79
64 56 52 53 59 61 83 97 93 90 69 86 90 86 90 69 70 69 68 68 67 70 67 69 68 73 86
56 54 58 62 64 68 77 93 96 94 75 83 95 90 94 91 76 76 74 74 72 73 74 73 75 78 94
66 71 74 78 79 76 77 83 85 93 88 91 96 96 95 92 87 78 79 80 83 84 82 96 89 83 84
80 83 83 83 86 88 86 86 86 84 86 87 96 96 97 95 93 89 85 84 86 93 91 94 93 96 98
88 84 84 86 87 86 92 90 93 87 79 82 87 92 96 94 94 93 87 96 90 96 97 92 89 96 98
89 91 87 87 88 85 89 92 95 91 88 82 81 83 88 95 96 89 90 90 88 94 96 96 89 92 98
91 90 93 92 91 89 88 93 95 91 91 87 89 91 84 78 72 91 89 91 89 93 93 98 90 87 97
94 93 93 93 89 91 90 92 90 88 88 88 91 95 95 91 74 68 92 92 94 95 88 96 98 95 97

GFSFLT2_sfc_rhum_054.txt.gz
RH
52 53 58 54 51 52 47 53 54 54 53 53 53 55 57 58 59 59 61 64 64 64 68 69 70 72 70
60 58 59 53 52 57 58 50 46 49 52 54 56 57 59 60 58 59 60 59 60 62 63 63 66 67 68
71 62 61 63 68 69 56 56 45 50 54 56 58 62 61 59 59 58 60 61 60 60 60 62 62 63 66
75 82 78 79 74 71 62 57 58 49 56 63 62 61 61 60 63 62 61 61 61 60 60 62 64 67 68
88 78 78 77 74 63 64 62 65 68 73 63 62 62 64 65 63 62 62 62 61 62 64 65 66 68 69
88 90 85 64 62 68 74 81 89 68 74 71 66 68 66 63 62 62 63 64 62 64 65 67 70 68 68
74 65 63 64 82 86 90 93 87 73 76 81 66 68 64 55 65 66 66 68 68 65 63 64 67 68 71
60 60 70 64 72 80 82 82 77 70 69 90 71 72 66 68 69 69 69 67 62 64 68 68 69 68 68
60 63 65 63 59 66 86 92 87 75 69 77 78 84 78 75 67 65 62 64 69 69 69 69 70 69 72
69 69 62 68 63 69 83 96 94 91 73 90 89 88 90 75 84 70 73 70 69 71 70 72 75 76 92
65 64 64 67 69 69 77 93 96 94 75 85 95 91 94 92 77 77 74 74 72 71 76 76 76 77 96
70 76 81 84 83 82 82 86 87 93 87 93 96 96 95 92 88 79 79 79 83 84 82 80 80 82 82
87 89 87 87 88 88 86 87 88 87 86 86 94 95 96 95 94 90 85 84 84 92 88 90 93 87 96
87 86 87 89 89 88 94 91 94 88 80 86 90 94 96 93 94 92 87 95 87 88 96 97 87 84 89
90 91 90 89 90 87 91 94 95 91 89 83 83 84 88 95 96 88 90 91 88 88 94 92 88 86 89
92 92 93 93 92 91 90 93 95 90 92 87 88 92 86 81 71 92 92 91 88 86 91 98 91 83 81
94 92 92 94 90 92 91 92 91 88 87 88 95 96 95 92 74 66 93 92 89 92 88 90 95 89 86

GFSFLT2_sfc_rhum_057.txt.gz
RH
63 65 69 65 58 54 54 54 57 60 57 56 55 56 57 58 59 62 63 64 66 67 68 69 71 70 68
68 66 68 66 61 65 60 58 57 56 58 57 58 59 60 62 61 60 60 60 61 61 61 60 63 67 70
74 70 71 72 79 74 79 65 54 54 55 58 62 65 65 62 62 62 64 64 64 62 61 62 63 65 66
81 86 78 64 72 86 74 61 60 48 56 63 65 64 63 65 66 66 66 66 65 64 65 67 68 68 69
91 80 78 74 80 70 69 67 64 66 70 71 68 66 67 67 65 66 66 65 63 65 68 70 68 69 71
87 81 77 73 68 70 77 82 86 67 83 74 69 70 68 65 65 65 66 68 67 66 68 69 71 69 70
81 81 78 70 80 87 92 96 89 77 76 80 68 71 66 57 66 68 70 69 69 65 66 65 67 68 68
71 68 71 69 80 78 82 84 77 71 69 89 70 72 67 67 71 71 70 68 65 65 68 68 69 71 72
61 65 66 64 62 68 87 91 87 76 69 78 80 83 78 75 69 69 63 64 68 69 72 70 71 71 75
72 66 62 69 65 71 87 96 94 91 78 90 89 90 91 89 89 70 75 71 71 70 70 72 72 75 87
62 64 65 70 72 77 85 94 96 94 77 85 95 91 94 92 79 78 75 74 73 73 74 76 76 77 92
74 79 84 87 86 85 84 89 90 94 87 91 96 96 96 92 89 79 80 80 84 86 83 79 80 79 77
88 88 87 88 90 91 89 88 90 89 88 88 94 94 96 95 93 90 87 83 84 89 95 88 86 85 96
92 89 88 90 91 89 94 92 94 88 82 86 91 93 95 94 94 92 85 93 86 88 88 86 84 86 88
92 91 89 90 90 87 91 92 96 91 89 83 84 88 90 92 96 90 90 90 87 89 90 92 86 84 83
91 91 93 93 92 90 91 94 95 90 91 88 89 91 86 83 81 93 88 86 86 87 88 95 91 83 79
93 92 94 94 90 92 91 93 92 89 88 89 95 96 95 92 74 66 90 92 88 90 88 91 94 86 79

GFSFLT2_sfc_rhum_060.txt.gz
RH
69 67 74 70 63 65 63 61 62 65 66 62 60 59 59 60 60 61 62 66 66 67 66 69 66 66 68
74 77 77 73 74 73 66 60 65 69 65 61 60 60 62 63 61 62 60 61 63 62 61 63 65 68 69
76 79 80 80 79 77 71 74 66 62 59 60 61 64 66 63 63 64 64 64 64 64 63 64 66 69 68
82 88 94 78 77 79 73 65 65 53 58 62 66 65 64 66 67 66 67 67 67 66 64 65 71 68 70
88 95 90 76 78 73 74 71 69 68 72 77 82 71 69 70 67 68 68 68 65 65 65 67 68 71 72
91 87 83 81 75 79 80 85 88 69 85 75 68 70 69 68 68 67 66 67 67 70 70 71 71 73 72
81 83 85 79 83 90 90 96 90 76 79 79 69 72 67 59 66 68 69 70 69 65 66 68 69 70 68
80 79 77 74 87 83 83 85 79 73 70 88 71 73 66 68 69 70 70 68 66 64 65 65 67 68 72
61 66 67 65 62 71 88 92 88 76 68 79 82 81 77 75 69 72 65 63 65 68 70 70 68 69 71
71 63 62 68 67 72 90 96 95 92 83 95 88 91 91 93 88 76 69 72 71 70 69 70 70 71 78
64 68 69 73 74 79 87 95 96 94 75 87 95 92 94 92 86 78 76 73 72 72 73 74 75 76 89
78 83 86 87 86 85 84 88 89 94 88 92 96 96 95 92 88 80 80 80 83 85 84 80 79 78 75
91 90 89 90 90 91 90 89 91 91 90 89 96 95 96 95 93 89 88 83 83 88 90 94 90 85 91
92 89 88 90 92 90 94 92 94 89 82 84 90 94 95 94 94 92 86 93 85 86 88 88 85 85 85
93 92 90 91 90 88 91 93 96 92 89 84 85 88 90 93 96 90 90 88 87 89 90 91 86 84 81
92 92 94 93 92 91 91 94 95 91 91 88 89 92 88 84 84 95 91 91 87 87 89 95 91 83 79
94 93 94 94 90 92 91 93 92 89 89 88 94 96 95 92 74 62 89 92 90 90 87 89 93 87 80

GFSFLT2_sfc_rhum_063.txt.gz
RH
71 67 72 72 65 69 70 69 68 67 66 66 65 63 60 60 60 61 63 65 65 67 67 67 68 67 66
77 80 80 75 77 80 66 60 66 66 68 66 63 62 63 63 62 61 66 66 64 65 65 64 63 61 62
76 83 85 85 83 83 84 76 66 63 62 63 64 66 66 64 62 62 63 64 64 62 63 64 63 63 67
80 87 92 87 93 88 77 71 70 58 62 65 67 67 66 65 67 67 68 68 68 66 65 65 64 67 72
88 92 94 86 84 78 80 76 75 73 73 80 81 80 71 70 67 68 69 70 69 64 67 68 68 69 72
98 93 89 83 78 83 85 89 88 76 89 74 72 71 67 68 69 69 68 67 68 65 65 69 70 72 73
85 83 86 79 84 91 91 95 92 76 79 82 71 73 66 60 67 68 68 69 69 68 64 66 69 70 72
84 81 85 78 84 81 83 84 78 74 74 89 70 72 65 67 70 69 70 70 69 67 64 63 63 63 65
62 67 67 65 63 73 89 93 88 76 69 78 82 81 77 73 66 71 67 66 63 64 67 68 67 66 68
71 64 63 68 70 75 92 96 94 92 85 95 88 90 93 94 95 79 63 70 70 71 70 69 69 65 78
68 72 73 76 76 79 87 96 96 94 75 87 95 94 95 92 88 81 75 72 72 72 73 73 74 72 84
81 85 88 89 88 86 85 89 89 95 88 94 96 96 95 92 88 79 80 80 82 81 82 79 78 76 74
92 91 90 91 92 92 91 90 90 90 90 90 97 94 96 95 93 88 88 83 83 88 89 93 94 90 95
94 90 90 92 93 92 95 92 94 89 83 85 90 95 95 94 94 92 86 94 87 87 87 87 84 84 87
93 91 91 92 92 90 93 94 96 92 90 84 85 89 90 93 95 90 91 91 88 89 90 91 86 85 82
93 94 94 94 93 91 90 94 95 91 92 88 89 92 87 82 84 95 92 92 89 88 89 96 91 82 78
95 95 94 94 91 93 92 93 92 89 88 88 95 96 95 92 73 62 92 92 90 92 88 89 91 85 80

GFSFLT2_sfc_rhum_066.txt.gz
RH
68 66 72 69 64 72 73 76 74 68 66 64 64 62 61 60 60 61 64 66 68 67 70 68 68 65 66
78 78 79 72 74 81 67 60 68 68 69 65 63 64 64 64 62 64 66 69 69 68 66 64 66 68 65
81 83 85 86 88 86 88 81 71 66 65 66 66 67 67 65 63 63 63 64 63 63 63 62 63 63 63
84 94 91 88 95 93 85 78 73 61 66 68 67 65 66 66 67 68 68 68 68 67 65 63 63 65 65
90 92 98 75 87 80 84 79 79 78 77 78 78 79 73 70 68 67 69 70 70 68 65 68 71 70 69
97 97 88 90 83 84 86 91 87 76 88 75 69 72 69 69 69 69 68 68 68 66 66 68 71 70 69
87 87 89 81 85 93 94 95 89 75 78 82 70 73 67 61 67 68 67 68 68 66 65 63 65 69 69
86 82 87 82 86 79 84 86 79 74 78 92 69 71 64 67 70 70 70 68 68 66 63 62 65 68 67
63 68 67 65 66 79 92 94 89 77 70 79 82 81 75 72 65 70 66 64 63 64 66 67 66 64 69
75 67 66 73 72 78 95 97 94 93 87 94 88 89 96 91 90 80 64 68 68 70 70 69 69 68 74
73 75 76 79 78 80 88 98 96 94 76 86 97 91 95 92 85 77 75 71 70 69 72 73 73 73 83
84 88 89 90 89 87 86 90 91 94 87 92 97 97 95 92 88 80 83 80 82 80 79 79 78 77 75
94 92 92 92 92 93 92 92 93 92 92 91 96 94 96 95 93 88 89 83 82 88 88 90 91 89 95
95 91 91 96 94 93 96 93 95 89 84 88 92 95 95 94 94 92 85 94 87 88 90 88 85 82 84
95 92 92 93 93 91 94 94 96 92 90 84 85 89 90 94 95 89 90 91 89 90 92 92 87 85 83
94 95 95 95 95 91 91 95 95 91 92 88 88 91 86 82 86 94 91 92 89 89 92 96 91 82 79
96 95 95 95 92 94 93 94 92 89 88 88 96 96 95 91 71 62 96 91 90 91 89 90 92 85 80

GFSFLT2_sfc_rhum_069.txt.gz
RH
49 45 46 46 44 45 50 49 49 61 64 63 65 63 61 61 61 60 61 63 68 68 69 69 70 68 67
49 48 51 50 50 54 52 49 49 57 66 66 64 65 65 64 63 64 65 68 67 65 64 65 68 68 68
60 56 56 55 56 56 59 59 53 61 63 65 65 67 67 65 64 63 63 63 64 64 64 63 64 64 64
64 69 64 60 65 68 60 52 53 50 58 62 66 65 66 66 67 68 68 68 68 68 66 64 63 62 66
75 70 74 67 64 58 60 58 58 57 55 52 51 52 54 60 61 65 67 70 70 68 66 68 70 73 74
85 76 66 61 59 62 69 75 77 51 56 60 54 55 53 52 61 66 67 66 68 66 66 68 71 72 71
68 63 64 57 80 86 80 81 79 62 61 67 54 55 51 47 62 65 67 68 68 68 65 64 64 70 70
59 59 64 65 72 76 77 75 65 57 55 78 54 54 50 50 62 67 69 67 65 64 64 62 63 65 66
65 69 68 66 64 69 81 82 82 63 55 62 61 62 62 60 50 61 62 62 62 64 65 67 67 66 65
59 54 56 58 70 63 80 95 91 83 56 81 71 72 81 54 56 53 52 61 66 69 69 68 69 66 69
55 57 58 60 62 63 73 90 94 92 67 85 90 84 89 83 64 62 61 60 55 57 66 70 71 72 81
68 71 75 78 78 77 76 81 81 93 85 92 95 92 94 90 83 71 71 69 72 68 65 70 75 76 74
79 82 82 83 91 91 89 89 92 92 92 92 95 94 96 94 91 85 86 78 77 84 81 78 77 73 83
84 80 81 86 88 87 94 92 95 88 82 86 93 95 95 90 92 90 82 94 84 85 86 83 79 75 78
85 86 84 86 88 86 92 93 94 92 89 82 83 85 89 94 95 88 89 88 86 88 90 89 84 78 74
87 88 91 92 93 91 90 93 94 90 90 87 87 90 85 80 85 94 89 89 87 88 92 95 88 79 70
91 92 92 92 92 93 91 90 90 87 87 89 95 96 94 89 70 65 97 91 88 85 87 87 91 84 75

GFSFLT2_sfc_rhum_072.txt.gz
RH
94 74 65 54 40 37 39 39 38 50 55 58 62 64 64 63 63 63 62 61 61 64 66 67 66 65 65
62 52 45 46 47 49 42 39 42 50 58 63 66 64 66 65 65 64 63 62 61 62 61 62 62 62 62
61 54 55 53 55 48 47 46 39 47 51 55 59 62 65 66 65 65 65 65 64 64 64 64 63 62 63
60 61 57 50 54 54 48 43 42 39 48 52 56 58 60 61 62 64 65 66 67 67 66 66 64 65 66
68 58 62 51 50 46 47 47 50 49 48 45 43 45 46 51 52 56 58 62 66 67 66 64 63 65 67
80 64 52 48 46 49 60 67 73 50 49 53 46 47 46 44 52 58 63 65 66 67 66 65 68 70 70
61 53 51 45 71 81 72 82 80 57 54 58 47 48 43 38 52 57 62 65 67 67 66 64 62 66 69
51 48 51 52 63 73 73 69 58 50 50 73 50 50 44 44 55 58 61 63 64 65 65 64 63 63 64
60 66 68 66 62 64 76 77 75 62 52 58 55 57 59 59 49 54 57 60 63 65 66 67 67 66 64
49 47 48 49 60 58 74 89 89 82 53 77 71 71 83 57 56 54 52 57 61 63 66 67 68 65 68
45 47 49 52 54 56 66 85 91 90 67 81 90 84 89 85 66 65 62 60 54 56 62 66 67 68 77
58 63 68 73 75 75 74 80 78 90 85 90 96 93 94 88 83 72 73 71 72 71 66 64 68 69 70
72 76 78 80 87 88 92 91 88 90 91 92 96 93 96 94 91 83 85 79 79 86 82 80 78 74 82
76 74 76 82 85 85 89 88 92 88 94 91 92 95 93 91 92 89 82 94 85 87 87 84 81 77 76
79 80 80 82 85 83 87 92 94 88 87 84 88 90 91 95 95 88 88 86 87 90 92 90 84 79 83
83 83 87 89 89 88 90 93 90 85 86 86 87 89 86 82 85 92 88 91 89 90 94 96 89 80 73
86 88 88 88 88 90 90 90 86 81 83 87 93 93 95 91 72 66 90 92 88 88 87 87 90 85 76

GFSFLT2_sfc_rhum_075.txt.gz
RH
95 92 94 91 73 68 55 42 43 49 51 54 58 60 64 65 64 64 63 63 62 61 59 61 64 64 66
86 82 85 54 55 61 56 44 44 47 53 53 57 59 62 63 64 64 64 64 63 63 62 62 60 60 59
64 62 62 58 57 53 52 52 44 45 45 48 53 56 60 63 64 65 65 66 66 65 65 64 64 64 62
68 71 65 63 65 63 60 54 49 38 47 52 55 53 54 55 57 58 58 60 62 64 63 63 63 63 63
79 73 76 64 62 59 55 54 56 58 60 57 58 56 55 53 52 54 54 57 60 63 63 62 60 64 63
90 75 67 59 57 58 73 77 81 63 66 65 60 58 56 54 52 53 55 57 60 63 64 63 61 62 62
72 65 61 54 84 86 81 86 86 71 66 70 60 60 55 45 53 55 57 59 62 63 64 64 64 63 61
63 58 59 58 70 74 79 76 67 64 64 79 63 64 56 56 57 60 62 62 61 62 64 65 65 64 64
50 59 64 66 65 74 86 86 83 76 68 74 73 72 72 68 62 60 58 58 60 64 63 64 64 64 64
61 56 51 53 53 66 85 88 87 91 77 92 86 85 93 72 74 71 66 64 62 62 65 64 64 61 68
56 58 60 64 69 70 77 87 92 90 74 86 98 91 92 90 78 77 73 72 70 69 67 68 68 67 76
68 76 83 80 80 78 78 84 87 93 86 89 97 96 96 92 88 82 81 79 80 82 80 74 73 72 70
82 82 79 79 84 86 84 84 85 87 86 89 94 96 97 95 93 89 88 83 82 88 91 86 85 82 89
80 77 78 83 83 85 90 86 91 86 86 88 93 97 96 94 93 92 85 95 86 87 88 88 86 84 84
80 87 84 85 86 86 91 91 94 87 84 80 84 88 97 96 96 89 89 88 86 87 90 93 88 85 81
86 87 88 90 88 91 91 94 92 86 89 85 84 89 88 84 84 94 92 95 91 88 88 95 90 81 77
93 88 88 93 87 92 92 92 89 84 86 87 91 95 96 92 74 67 90 90 87 87 88 89 92 86 79

GFSFLT2_sfc_rhum_078.txt.gz
RH
97 95 96 93 80 72 70 63 52 51 51 53 55 56 58 61 63 63 62 62 62 61 60 60 60 61 63
92 90 87 70 65 62 56 52 61 50 52 52 50 50 55 58 61 63 63 63 62 61 63 64 62 61 60
73 69 70 69 74 71 68 68 52 51 45 47 51 56 58 59 58 59 59 60 60 59 61 61 60 62 62
88 87 75 75 83 81 77 64 60 47 54 55 56 57 56 57 58 58 57 57 58 58 59 60 59 59 62
92 88 95 77 76 70 69 79 74 73 78 75 73 66 66 61 58 57 56 56 57 58 60 59 60 60 60
98 92 85 74 71 82 95 96 92 76 84 75 77 71 68 68 60 57 57 57 58 60 61 60 60 61 61
87 84 78 70 88 91 89 97 95 81 88 77 72 77 67 56 60 60 59 61 63 64 63 61 62 62 64
75 73 72 68 82 84 92 92 86 81 83 91 79 77 69 75 65 64 64 64 60 61 62 64 62 63 64
50 57 61 62 66 91 96 98 94 84 76 91 90 89 74 74 74 65 60 61 66 67 66 65 65 63 63
76 68 63 64 53 72 95 97 90 93 91 96 96 98 95 94 85 75 81 71 68 69 69 68 67 68 71
74 75 77 83 88 87 88 97 97 94 78 90 98 90 95 92 90 91 79 81 79 74 75 74 74 71 82
84 94 94 92 84 81 77 86 90 95 88 93 97 96 95 93 88 85 83 80 85 86 82 79 77 72 69
98 95 81 87 92 92 94 93 93 92 90 87 96 95 97 95 93 88 86 82 84 91 97 89 88 85 92
96 77 81 90 89 93 94 91 91 87 87 89 94 97 96 95 95 92 87 95 87 88 88 88 86 85 87
88 89 91 92 91 91 94 94 97 93 89 84 85 87 89 93 96 90 90 91 87 87 90 92 87 87 88
92 94 95 95 95 93 95 96 96 91 92 86 87 93 90 86 83 94 91 91 87 88 90 93 90 80 77
97 96 95 95 91 93 93 94 93 89 88 89 94 94 96 92 75 68 85 83 87 93 88 89 91 85 76

GFSFLT2_sfc_rhum_081.txt.gz
RH
98 96 97 94 82 79 77 69 65 57 55 53 54 56 56 56 58 60 61 61 61 61 62 63 66 64 64
94 93 91 78 69 66 55 48 58 57 54 54 50 50 53 57 59 61 60 58 59 60 59 62 63 65 64
75 76 83 78 72 65 65 67 57 53 47 49 53 56 59 59 58 58 60 60 60 59 59 58 59 60 60
82 88 81 73 78 80 81 68 65 53 55 58 59 59 61 62 60 60 59 59 58 59 58 58 58 58 59
91 90 96 81 81 76 73 82 79 80 83 78 78 77 76 69 64 63 62 60 59 59 59 58 58 62 62
99 94 89 81 78 81 94 97 95 83 89 78 83 78 78 81 67 61 60 61 61 61 62 62 63 62 63
91 92 86 74 86 92 89 98 97 91 91 88 84 84 82 62 66 65 64 64 64 64 61 61 61 63 63
80 80 79 76 84 86 91 94 91 88 89 98 92 82 83 77 70 65 64 60 63 65 66 66 65 66 67
56 59 58 56 60 94 95 97 96 89 85 94 94 88 77 82 82 64 63 67 67 69 68 69 67 67 68
76 69 66 72 70 80 96 96 96 98 90 98 99 96 96 95 88 78 87 74 69 69 72 72 71 72 78
80 83 86 90 90 90 93 98 99 94 79 95 99 93 98 91 91 88 79 82 78 76 76 76 76 75 83
90 96 95 90 89 83 81 87 90 95 90 96 98 98 96 92 89 85 82 81 88 85 85 81 79 75 75
98 98 90 90 93 92 92 94 95 94 92 92 95 95 97 95 94 90 87 85 86 93 96 91 92 88 93
96 80 84 93 93 96 97 96 95 94 91 91 94 96 96 94 95 93 85 96 86 87 90 87 84 83 82
93 92 91 94 94 96 96 96 98 96 94 93 91 90 91 92 96 91 91 88 85 88 90 92 87 81 81
90 94 97 96 96 95 97 100 97 95 95 92 92 94 88 86 81 94 92 92 88 89 90 94 90 81 79
88 96 96 96 92 94 97 98 95 94 93 92 96 98 96 94 76 63 92 85 86 89 89 90 92 84 80

GFSFLT2_sfc_rhum_084.txt.gz
RH
98 97 97 96 90 90 84 80 74 66 58 56 55 56 56 55 55 56 59 59 58 60 63 64 66 66 66
95 95 94 92 86 71 60 51 60 56 57 56 54 52 53 56 59 60 60 61 61 63 62 62 64 65 66
89 82 80 73 72 72 66 67 59 52 50 52 54 55 58 61 62 63 62 62 62 61 60 60 59 60 60
82 88 84 79 84 88 80 70 72 55 57 58 61 61 62 64 63 63 62 62 62 61 61 60 57 57 59
94 94 98 88 88 80 76 82 82 84 86 86 84 85 85 74 69 66 67 64 62 62 62 60 59 61 63
99 94 91 88 85 84 95 98 96 87 94 82 85 83 84 85 72 64 63 65 64 63 64 61 61 63 63
90 92 91 84 90 92 91 98 97 89 93 96 89 89 84 67 68 69 67 64 62 63 65 66 65 64 65
87 85 83 79 85 83 90 93 91 87 92 99 93 87 84 77 70 65 59 64 67 67 69 67 66 66 67
62 60 60 59 62 94 97 97 94 90 89 94 93 90 91 92 84 64 65 66 66 69 68 68 68 68 70
79 70 74 80 78 84 96 96 98 97 91 96 95 98 97 94 89 81 81 73 70 67 69 71 71 72 75
80 88 90 90 90 90 94 98 99 98 82 95 99 95 98 98 97 94 88 82 80 77 77 74 75 75 77
93 96 95 97 83 77 80 85 91 94 89 94 98 99 97 94 91 91 88 86 92 89 88 83 80 78 78
98 98 94 82 84 94 92 93 94 94 93 98 97 96 97 96 91 87 89 90 85 96 96 92 93 85 91
98 86 80 87 92 96 97 96 96 96 92 92 95 97 96 95 95 92 86 96 90 89 90 89 89 88 82
93 92 89 92 94 94 96 97 99 92 95 92 91 93 94 95 97 91 89 88 89 92 92 91 87 85 80
93 95 94 95 96 96 98 100 99 94 95 94 94 95 89 89 85 95 90 94 91 90 92 96 91 83 76
96 94 95 96 92 96 99 99 97 96 95 96 99 97 96 93 88 64 92 90 87 90 91 92 92 85 79

GFSFLT2_sfc_rhum_087.txt.gz
RH
97 96 96 96 92 93 89 87 83 75 63 57 57 57 56 56 56 56 58 59 59 58 61 64 64 64 66
95 95 93 91 89 86 66 54 63 57 56 57 56 55 55 56 56 59 60 59 64 61 59 59 58 61 63
93 84 81 73 70 68 67 74 60 52 52 53 54 56 60 60 62 62 62 62 64 62 62 62 61 61 60
83 88 83 82 88 87 85 78 74 56 60 60 63 63 65 65 64 65 64 63 63 64 63 62 62 59 59
98 96 98 90 89 86 80 83 82 85 88 85 85 86 85 75 71 68 69 67 64 64 64 63 61 60 64
100 94 92 91 88 85 95 98 96 89 93 89 86 87 83 83 69 64 66 67 67 64 63 60 62 64 68
91 92 92 90 91 93 90 98 97 90 92 95 92 89 82 68 70 69 69 63 65 67 66 66 66 63 63
89 88 88 82 84 81 88 93 93 87 93 99 92 88 83 80 73 67 62 62 64 67 68 69 65 64 66
64 60 61 62 68 94 99 98 93 88 89 95 95 93 95 94 84 67 63 62 65 67 68 68 66 68 68
79 70 79 81 78 84 96 97 98 98 91 97 98 98 97 91 89 81 75 73 69 69 70 71 69 71 76
81 91 92 92 91 91 91 98 97 92 88 94 98 97 97 98 97 95 88 82 81 79 79 76 76 75 84
94 97 96 98 96 82 77 89 92 95 90 95 98 98 99 94 87 94 89 86 91 90 88 83 78 76 75
98 98 96 92 91 94 93 92 94 94 92 98 98 97 98 96 94 89 85 91 82 94 98 96 95 89 95
98 96 88 86 89 96 97 91 95 96 93 95 96 98 97 96 95 93 87 96 93 86 92 92 90 89 91
95 92 92 90 93 96 97 97 98 98 91 93 94 95 96 96 98 93 92 94 90 92 95 93 88 87 87
94 95 96 96 95 96 97 100 99 96 96 97 98 98 96 91 90 96 95 95 92 92 95 97 91 82 78
96 96 96 96 92 94 98 100 97 96 95 95 100 99 96 95 88 65 91 97 91 87 91 92 92 85 79

GFSFLT2_sfc_rhum_090.txt.gz
RH
97 95 96 96 92 92 89 87 83 80 68 58 56 57 57 57 57 56 58 59 57 57 58 63 64 62 65
95 95 93 91 88 86 72 59 63 58 57 57 56 56 57 57 56 56 58 60 62 58 61 61 62 60 59
96 92 83 72 70 68 67 69 57 52 53 54 54 54 59 60 61 61 63 64 64 64 63 62 63 62 61
88 88 86 88 91 88 81 77 73 57 60 62 60 64 64 63 63 64 66 65 65 64 64 63 61 60 60
98 95 98 90 88 87 80 82 81 86 88 84 83 83 81 74 71 66 67 67 67 65 65 63 60 59 61
99 94 92 92 89 86 95 97 90 87 93 90 88 84 81 81 69 66 65 67 68 65 62 62 62 63 62
90 92 92 91 92 94 90 98 97 91 93 92 91 87 81 70 71 69 68 67 62 64 67 67 66 66 62
89 90 88 85 84 82 88 93 93 89 93 99 93 88 83 86 72 68 65 60 62 65 66 67 66 64 64
66 61 65 65 77 94 98 99 94 88 91 96 96 96 94 91 80 64 65 65 66 67 68 69 68 66 67
79 72 83 81 78 84 96 97 98 98 91 99 99 98 96 90 86 79 81 72 70 70 73 74 71 71 69
83 93 94 93 92 93 91 97 97 94 82 93 99 96 98 98 96 94 85 86 77 79 80 78 76 73 76
94 98 96 98 97 95 81 90 94 96 91 97 99 99 98 92 91 96 94 86 91 90 91 83 83 77 76
98 98 98 95 94 91 87 91 93 94 93 94 97 96 98 95 93 89 91 93 88 94 98 98 94 91 96
98 98 94 92 92 96 98 96 97 98 93 96 98 99 100 98 96 95 89 96 93 92 93 93 91 91 91
97 92 80 92 87 96 97 97 98 100 98 96 94 96 96 96 97 93 93 94 92 94 98 94 90 87 87
94 94 96 97 96 96 96 98 97 98 98 98 98 98 97 91 91 95 96 97 93 95 97 98 91 83 82
98 96 96 96 89 94 92 94 95 98 96 98 100 100 97 96 88 64 98 93 96 90 89 93 94 87 81

GFSFLT2_sfc_rhum_093.txt.gz
RH
94 86 87 85 81 80 78 74 69 74 66 58 56 56 56 56 56 57 57 58 58 58 58 58 56 54 57
89 88 86 83 80 73 64 51 55 55 56 55 55 56 56 57 58 57 56 58 61 62 61 60 62 61 60
90 80 68 60 59 58 58 57 46 52 52 54 56 54 58 57 59 61 63 64 65 65 64 63 63 62 60
72 73 69 69 66 59 57 50 48 43 48 58 59 62 62 62 61 63 66 65 63 63 64 64 63 62 60
73 68 72 63 59 56 52 51 47 53 52 49 51 51 50 61 63 64 64 65 66 66 66 64 62 60 60
89 63 66 61 58 57 59 57 45 58 62 55 56 52 52 52 61 65 65 67 67 64 63 67 66 63 62
60 60 63 63 73 76 66 70 66 60 65 56 54 51 50 49 66 70 69 68 62 61 64 66 65 64 63
64 66 63 63 64 72 77 72 66 63 64 74 58 56 53 54 70 67 64 64 62 64 64 66 67 67 66
66 64 67 69 66 71 79 81 67 62 63 68 66 67 64 58 50 61 62 64 65 66 67 70 70 69 64
56 58 68 68 76 65 81 90 86 80 70 85 79 74 82 60 58 57 53 61 66 66 70 72 72 63 63
57 64 68 70 69 68 75 89 91 86 64 84 91 81 84 81 66 66 62 57 54 58 68 73 74 73 71
69 74 76 80 79 74 70 75 80 90 81 93 93 91 90 86 80 70 68 67 68 68 63 69 75 72 74
74 79 82 81 87 84 84 85 90 90 91 92 92 89 91 90 88 81 84 74 73 82 80 74 72 70 79
76 75 80 83 81 83 90 86 87 86 86 88 91 94 94 89 90 91 79 91 82 83 84 80 74 69 68
81 80 74 79 81 82 88 88 89 87 86 81 81 84 88 94 94 86 89 87 84 89 89 84 78 71 66
83 80 83 86 87 87 88 91 90 84 89 85 86 86 83 75 88 90 85 87 85 86 88 89 85 71 62
87 87 87 88 85 88 86 86 85 83 87 87 91 94 94 90 67 73 92 84 83 83 80 80 86 81 66

GFSFLT2_sfc_rhum_096.txt.gz
RH
86 82 84 74 69 65 66 61 61 70 64 59 57 57 56 56 57 58 59 58 57 57 58 57 56 54 59
85 81 78 75 69 67 57 46 48 54 56 55 55 56 55 56 58 58 58 57 59 62 62 61 60 59 57
83 74 70 63 59 52 50 49 42 51 48 50 55 55 53 56 58 57 61 63 64 65 63 63 62 61 60
69 70 63 59 57 57 53 46 44 35 40 50 56 52 59 59 60 61 64 66 64 62 64 65 64 63 62
73 66 69 59 54 50 47 42 39 41 38 35 38 40 41 51 59 62 61 62 64 65 67 66 63 63 61
77 60 54 51 49 45 48 48 43 43 46 41 45 44 43 43 48 62 65 67 67 67 62 63 66 66 64
44 40 46 46 59 67 56 57 55 45 56 50 45 43 42 39 55 68 70 69 68 60 64 65 66 66 66
50 51 52 52 57 70 72 64 54 51 54 72 47 48 43 45 62 72 66 66 63 65 65 65 67 69 69
65 67 66 65 56 61 72 71 63 52 54 59 57 61 57 54 44 62 64 66 68 67 66 66 70 70 65
52 56 55 68 73 60 76 92 81 77 63 78 76 72 84 57 53 50 48 53 60 67 63 66 70 63 58
44 46 51 60 59 58 68 90 90 86 65 80 86 83 83 81 64 60 60 55 52 55 60 62 67 71 69
51 57 62 68 72 69 67 73 73 90 81 96 90 89 90 89 80 69 67 65 65 64 60 60 64 66 69
59 70 75 78 94 90 90 90 96 97 96 97 91 90 93 93 88 81 83 74 74 84 77 73 70 64 75
65 66 76 85 81 80 85 83 87 84 96 97 91 90 90 84 86 87 80 90 84 87 88 80 73 65 63
71 75 76 78 80 82 86 86 88 86 83 79 80 83 84 92 93 85 88 88 87 93 89 86 80 70 64
75 77 80 81 80 83 87 88 89 83 83 81 82 83 80 74 84 92 84 84 87 86 89 89 83 72 61
82 82 83 82 80 80 81 81 81 79 78 80 86 88 91 84 61 72 90 84 83 83 81 81 85 79 65

GFSFLT2_sfc_rhum_099.txt.gz
RH
92 83 86 80 73 69 70 67 71 68 63 61 58 58 57 56 58 59 59 58 56 56 58 58 55 54 55
90 86 83 77 76 73 61 51 57 57 57 57 56 58 56 55 57 56 56 56 57 60 62 62 59 57 57
88 80 76 74 70 62 61 59 43 54 51 51 53 54 56 55 56 58 56 59 62 63 63 62 62 62 60
82 85 77 69 71 74 71 62 59 38 41 47 49 49 53 56 57 58 60 64 64 61 62 64 64 64 63
92 82 87 78 75 69 67 62 59 56 56 52 53 57 58 51 57 55 61 59 60 64 65 66 66 64 64
97 87 71 69 66 66 67 77 74 59 63 60 58 65 59 60 51 56 62 66 67 67 68 63 65 66 67
69 57 63 58 79 76 71 79 80 68 70 71 63 62 59 43 50 59 64 70 69 68 62 64 65 66 66
64 64 70 67 81 84 86 78 67 66 69 91 66 68 64 64 60 61 69 67 68 64 66 68 66 67 69
67 65 64 60 59 80 89 89 86 71 71 77 81 83 79 77 68 60 66 66 68 70 69 66 67 67 74
78 69 65 75 72 73 93 96 94 93 84 93 89 94 97 81 75 72 72 56 56 59 64 63 65 79 80
54 59 62 74 73 71 83 90 88 88 79 94 94 87 88 89 93 88 83 79 76 73 64 63 62 67 91
61 70 76 85 88 88 82 90 87 91 91 96 97 95 92 86 93 94 94 92 91 87 85 73 68 66 67
78 88 92 96 95 95 96 94 96 95 94 94 96 94 96 96 92 86 91 95 87 92 96 82 79 88 89
85 89 94 85 95 86 87 84 93 86 91 93 96 94 94 89 92 91 84 94 96 93 93 80 80 85 84
88 92 91 93 92 85 91 88 95 92 92 94 91 92 91 92 94 91 93 93 93 92 92 83 83 87 84
90 92 93 94 95 91 93 94 95 88 92 93 96 96 90 85 83 94 94 94 95 94 90 94 90 83 80
92 93 94 95 90 95 94 92 87 87 90 88 96 97 96 95 86 69 95 94 94 92 89 89 90 83 77

GFSFLT2_sfc_rhum_102.txt.gz
RH
97 94 92 86 83 76 77 80 74 69 65 64 62 61 60 61 62 61 59 56 54 53 56 57 56 53 53
96 91 89 84 82 83 69 58 67 60 59 59 59 61 59 58 58 56 55 55 55 58 60 60 59 58 57
95 87 83 82 83 73 66 63 50 59 54 51 53 54 55 54 56 56 55 55 59 61 62 61 61 60 59
96 94 90 81 84 83 77 73 66 41 43 44 45 49 49 53 56 57 57 60 63 61 59 61 63 63 62
98 93 96 88 87 84 82 77 69 65 64 63 67 69 72 57 62 55 60 59 58 60 63 65 65 62 64
98 94 91 88 78 77 77 88 81 73 77 74 70 74 71 68 55 61 59 63 65 66 66 66 63 65 66
89 80 76 71 79 82 77 90 93 83 80 83 78 72 72 56 56 56 59 65 68 68 67 62 64 65 66
73 79 80 81 83 84 87 84 79 79 81 94 87 80 81 79 61 58 64 69 67 68 64 66 68 67 67
66 64 60 60 69 88 94 94 94 85 86 87 94 93 90 89 82 57 59 65 66 66 66 66 66 67 77
81 73 83 74 70 84 96 97 98 97 91 96 97 97 97 93 87 82 79 62 56 59 61 60 63 82 90
68 72 90 84 82 90 92 96 96 97 87 95 97 91 96 96 97 94 89 88 85 83 73 69 67 71 92
71 82 87 96 96 96 93 95 97 92 94 95 98 97 97 98 97 96 97 91 94 92 93 79 77 74 73
91 95 96 97 96 94 97 96 97 96 95 96 97 96 98 98 99 97 90 94 89 97 97 97 90 86 94
95 97 99 98 99 98 95 94 96 88 88 90 92 97 95 92 96 91 84 96 98 95 96 88 77 73 81
96 98 98 96 97 94 94 93 97 92 93 97 96 95 94 94 97 90 89 93 94 95 94 84 84 89 89
96 96 97 97 97 98 97 96 96 96 98 98 99 98 97 92 81 92 92 92 95 96 97 98 89 87 90
94 96 97 97 90 98 98 98 98 98 97 97 99 98 99 95 90 65 95 99 97 88 98 93 93 86 83

GFSFLT2_sfc_rhum_105.txt.gz
RH
98 93 94 94 89 82 88 78 78 71 69 68 66 65 64 63 65 64 62 58 55 53 56 55 56 53 53
96 93 93 89 82 78 67 66 68 63 62 62 62 65 65 63 62 60 57 56 55 57 59 59 58 57 56
98 89 86 83 83 71 62 66 56 62 62 61 60 59 58 56 57 57 56 55 57 60 62 60 60 60 59
95 92 85 84 83 83 80 77 66 48 48 48 48 50 49 53 56 57 58 58 60 62 62 61 63 63 63
98 96 97 92 94 89 86 83 73 68 64 61 68 70 71 59 62 56 58 60 61 60 62 64 65 64 63
96 94 93 92 89 84 82 82 78 75 70 68 72 74 73 76 57 60 60 60 63 65 66 66 65 64 65
91 92 90 83 83 82 78 88 86 80 76 76 84 76 78 64 59 58 58 60 64 68 68 67 64 65 66
81 75 78 80 76 78 83 83 80 80 82 92 93 83 87 84 58 58 59 68 68 70 68 66 67 69 68
66 66 67 69 76 82 90 89 94 88 89 87 96 93 94 93 86 59 57 63 67 65 65 64 64 67 79
85 79 78 73 69 76 92 95 98 97 92 95 98 98 96 93 93 89 84 68 58 59 61 61 65 86 90
71 86 88 85 85 93 91 95 98 99 91 94 98 98 98 98 97 95 92 91 92 88 75 73 69 74 94
73 82 93 93 95 97 94 95 97 95 95 92 98 98 98 99 98 96 97 95 97 93 93 80 76 71 72
83 91 92 95 98 98 97 95 98 97 98 94 96 98 98 100 100 98 90 95 94 99 98 97 95 92 91
87 92 99 99 99 98 98 97 97 96 92 91 94 94 97 93 94 94 86 94 98 98 98 98 96 88 83
93 98 97 98 98 99 97 96 95 93 87 92 94 93 94 95 97 92 90 88 91 98 99 96 97 92 91
92 95 97 97 98 98 98 98 96 95 96 94 100 98 97 93 89 95 89 91 92 98 99 98 91 92 87
91 95 96 97 92 99 98 98 99 98 98 98 100 99 99 98 89 68 95 99 96 95 94 96 89 84 81

GFSFLT2_sfc_rhum_108.txt.gz
RH
97 96 96 93 92 91 90 86 88 76 73 71 70 68 67 66 67 67 65 62 58 54 56 56 56 53 52
97 96 94 92 88 86 79 67 73 67 65 65 64 65 68 68 67 64 60 57 56 57 57 56 57 56 55
99 91 89 87 85 73 64 64 56 65 65 65 65 64 62 61 60 59 57 56 58 60 60 60 60 60 58
96 96 94 93 88 82 77 74 71 54 52 54 53 51 53 55 57 60 60 57 57 59 62 62 62 62 62
99 95 94 94 93 86 84 89 78 71 67 62 69 70 69 64 60 57 60 58 60 62 62 63 65 65 63
99 95 92 88 89 94 92 93 85 77 66 63 71 70 71 76 62 61 59 59 60 61 64 66 67 65 64
93 89 89 84 92 91 83 91 87 79 70 66 82 76 78 65 60 61 61 60 62 65 68 68 67 65 65
84 82 78 88 85 82 83 84 82 80 75 85 92 80 87 86 69 59 58 63 69 69 70 69 67 68 68
70 71 71 71 77 80 90 88 88 81 84 82 95 94 95 93 87 64 58 60 68 65 67 65 65 64 82
85 87 82 75 69 75 91 90 96 96 88 93 98 97 95 94 94 92 88 69 63 64 60 61 63 90 92
89 94 91 88 90 90 85 94 98 98 89 93 99 99 98 98 98 96 92 88 89 86 75 71 69 74 94
75 89 91 96 96 94 91 94 95 93 95 93 98 98 99 99 97 97 98 96 97 90 91 82 75 70 70
88 95 94 94 97 97 96 94 97 97 97 95 96 100 98 98 98 98 94 97 98 99 99 98 96 95 97
93 95 97 98 98 98 98 98 97 97 96 94 95 94 97 91 94 95 98 97 98 98 98 98 96 96 97
91 94 95 96 98 99 98 98 97 97 97 98 94 94 97 95 99 98 98 93 86 93 98 98 97 96 94
92 94 96 97 97 99 97 97 97 96 93 96 98 96 95 90 91 98 98 89 89 98 96 96 94 94 88
91 94 97 96 92 97 98 97 97 97 97 98 100 99 100 98 87 74 96 98 98 98 98 97 91 81 76

GFSFLT2_sfc_rhum_111.txt.gz
RH
97 94 98 96 97 91 90 89 91 78 76 74 73 71 70 69 69 69 67 65 62 58 60 58 56 54 53
98 97 94 94 92 93 84 72 79 72 70 69 68 68 69 70 70 68 64 61 58 59 58 55 54 54 54
99 94 93 92 88 76 78 71 61 68 66 66 68 70 70 68 66 64 61 60 59 60 58 58 58 59 58
98 98 97 96 93 91 86 74 70 57 60 64 64 61 60 60 61 62 62 58 56 59 61 62 62 62 62
100 97 98 99 98 92 90 82 73 69 72 68 72 72 68 66 59 63 63 61 59 61 64 63 65 65 63
100 99 95 94 94 92 91 86 87 81 72 69 72 68 66 72 61 60 58 59 60 62 63 64 66 66 65
97 95 96 90 94 92 86 87 92 82 70 69 80 69 74 64 61 60 60 61 62 65 67 68 68 67 65
86 87 86 86 87 88 84 83 80 82 76 87 89 76 83 84 74 62 60 59 63 66 68 70 69 68 67
74 75 76 77 76 78 89 87 92 82 84 76 95 88 90 89 85 67 60 59 65 69 68 69 70 65 80
81 82 82 77 69 77 90 91 94 94 86 89 94 94 96 94 94 93 88 69 67 65 66 64 63 92 93
82 87 82 84 93 87 84 94 96 97 88 91 99 98 97 98 96 96 93 88 88 87 76 72 68 76 95
76 94 96 98 98 94 91 94 93 92 90 93 98 97 99 99 97 97 98 97 97 89 90 82 73 70 70
94 97 98 98 98 97 96 95 97 95 95 94 96 100 98 98 98 99 97 98 99 99 99 98 95 93 97
95 97 97 99 99 98 98 98 96 96 95 95 93 95 99 98 98 98 98 98 98 98 99 98 94 93 97
97 97 94 98 98 97 97 97 97 97 98 99 96 94 95 95 100 98 98 99 98 97 97 99 97 94 92
96 94 96 97 97 98 96 96 96 96 98 98 98 97 96 93 89 99 99 99 97 95 98 99 97 94 87
96 95 95 96 93 97 97 96 96 95 97 97 99 99 100 99 91 79 94 98 95 97 96 95 93 84 76

GFSFLT2_sfc_rhum_114.txt.gz
RH
97 94 98 96 98 94 92 93 89 81 79 78 76 75 74 74 74 74 71 69 67 63 62 61 58 57 55
98 99 96 95 95 95 84 76 81 79 76 73 72 70 71 72 72 71 68 65 63 65 61 58 56 57 55
99 95 94 94 94 82 82 73 65 75 69 68 70 72 73 72 71 68 65 64 64 63 60 57 56 57 58
99 98 96 96 94 93 91 80 75 63 68 75 75 70 68 68 66 66 63 59 59 60 61 62 63 62 62
100 99 99 99 99 96 94 90 81 72 68 65 78 75 74 70 65 68 66 61 57 59 62 64 65 66 64
100 99 97 97 98 96 94 92 94 74 68 65 71 72 67 72 63 62 64 62 60 62 65 66 68 67 67
99 98 97 92 96 97 94 93 92 77 66 75 79 69 72 62 61 61 59 61 62 64 66 67 69 68 67
87 91 92 92 94 95 92 85 77 73 65 82 89 71 82 78 77 62 63 64 63 64 66 69 70 69 68
83 79 81 82 82 86 89 86 83 76 76 69 90 89 84 80 78 68 63 63 65 69 70 71 71 68 74
82 82 82 80 73 75 91 92 90 86 85 88 98 94 96 89 87 87 84 65 66 64 64 65 68 87 90
81 85 79 84 85 81 81 90 95 96 84 91 98 95 96 95 90 91 90 86 88 87 76 72 70 83 93
74 84 87 90 93 92 95 96 97 93 88 93 97 96 97 97 94 94 95 93 95 87 86 78 73 71 73
82 87 93 98 99 97 96 96 97 96 95 94 96 97 97 97 96 97 97 97 96 98 98 96 90 88 93
92 97 100 100 98 98 98 98 97 97 96 95 94 95 98 97 96 98 96 96 99 98 98 97 92 89 89
97 97 98 99 99 99 98 98 97 98 98 95 94 94 96 95 99 96 97 98 96 97 98 98 94 89 86
96 96 97 98 98 99 98 98 98 98 97 99 99 98 97 92 86 97 98 98 97 97 97 98 98 90 84
95 95 96 97 92 97 98 98 98 97 97 98 98 98 100 96 89 79 96 98 96 98 96 96 97 92 80

GFSFLT2_sfc_rhum_117.txt.gz
RH
93 88 91 85 87 84 90 89 84 86 82 82 82 81 81 84 86 84 81 78 78 71 66 63 63 62 59
91 89 92 86 84 86 88 78 78 83 78 79 77 75 75 76 79 75 76 72 66 66 65 63 61 60 56
96 90 89 88 93 88 84 76 69 82 77 76 72 72 73 76 75 71 70 68 69 66 62 58 58 59 56
98 97 94 92 91 91 92 80 75 68 75 78 75 75 74 73 72 72 70 67 66 64 61 59 59 60 60
99 98 98 98 98 93 96 89 80 78 80 79 71 69 65 68 72 71 65 62 60 61 62 63 64 65 65
100 99 97 96 98 98 96 96 98 77 76 71 66 64 57 56 62 70 68 65 61 60 63 65 66 67 67
97 96 98 94 97 99 96 95 96 82 74 77 62 61 56 43 57 62 63 63 62 62 65 67 69 69 69
77 80 87 90 95 97 96 92 84 78 70 86 68 62 58 50 67 63 62 62 63 64 66 68 68 69 70
77 82 80 83 86 92 94 95 91 80 69 66 77 72 67 58 59 77 64 65 65 65 66 69 72 69 69
68 69 72 75 75 73 93 100 92 88 76 82 84 79 81 72 71 72 64 65 65 66 69 70 72 66 68
66 75 71 75 78 78 81 97 95 89 77 87 93 84 89 86 77 76 73 74 73 73 66 65 67 70 70
59 67 76 82 87 87 86 87 87 94 81 95 97 92 91 89 83 85 81 75 74 74 71 72 72 73 75
66 73 79 85 93 92 93 92 94 94 91 88 92 92 90 90 86 85 87 84 80 85 79 77 74 68 75
74 71 83 91 89 89 90 91 92 92 91 88 89 89 90 83 86 85 84 92 90 88 86 80 74 69 65
77 77 79 86 88 90 91 91 88 88 87 86 86 86 86 90 90 84 88 88 87 92 90 85 80 74 67
81 82 84 88 89 93 92 92 91 86 86 87 90 90 88 82 83 88 88 87 87 90 88 87 80 70 64
87 88 88 89 88 91 91 90 89 88 87 88 94 92 92 82 69 78 89 89 85 87 84 83 80 69 57